Change the Weather History Date:

Thursday, October 7, 2010

  Actual Average Record
Temperature  
Mean Temperature 53 °F 63 °F  
Max Temperature 67 °F 82 °F 97 °F (1991)
Min Temperature 38 °F 44 °F 31 °F (2006)
Degree Days  
Heating Degree Days 12 4  
Month to date heating degree days 46 22  
Since 1 July heating degree days 154 72  
Cooling Degree Days 0 2  
Month to date cooling degree days 20 14  
Year to date cooling degree days 637 825  
Growing Degree Days 2 (Base 50)    
Moisture  
Dew Point 43 °F    
Average Humidity 69    
Maximum Humidity 96    
Minimum Humidity 42    
Precipitation  
Precipitation 0.00 in 0.03 in 0.78 in (1983)
Month to date precipitation 0.40 0.13  
Year to date precipitation 13.17 11.64  
Since 1 July precipitation 0.58 1.49  
Snow  
Snow 0.00 in - - ()
Month to date snowfall 0.0  
Year to date snowfall 1.0  
Since 1 July snowfall 0.0  
Snow Depth 0.00 in    
Sea Level Pressure  
Sea Level Pressure 30.04 in    
Wind  
Wind Speed 5 mph (West)    
Max Wind Speed 16 mph    
Max Gust Speed 23 mph    
T = Trace of Precipitation, MM = Missing Value Source: NWS Daily Summary

Daily Weather History Graph

Daily Weather History Graph

Search for Another Location

Airport or City:

Trip Planner

Search our weather history database for the weather conditions in past years. The results will help you decide how hot, cold, wet, or windy it might be!

Date:

Astronomy

Oct. 07, 2010 Rise Set
Actual Time 6:44 AM PDT 6:22 PM PDT
Civil Twilight 6:19 AM PDT 6:47 PM PDT
Nautical Twilight 5:50 AM PDT 7:15 PM PDT
Astronomical Twilight 5:22 AM PDT 7:44 PM PDT
Moon 6:37 AM PDT (10/7) 6:07 PM PDT (10/7)
Length of Visible Light 12h 27m
Length of Day
11h 38m
New Moon, 0% of the Moon is Illuminated
Oct 7
New Moon
Oct 14
First Quarter
Oct 22
Full
Oct 30
Last Quarter
Nov 5
New

Hourly Weather History & Observations

Time (PDT) Temp. Windchill Dew Point Humidity Pressure Visibility Wind Dir Wind Speed Gust Speed Precip Events Conditions
12:52 AM 45.0 °F - 41.0 °F 86% 30.03 in - Calm Calm - N/A   Unknown
1:52 AM 46.0 °F - 42.1 °F 86% 30.03 in - Calm Calm - N/A   Unknown
2:52 AM 46.9 °F - 42.1 °F 83% 30.02 in - Calm Calm - N/A   Unknown
3:52 AM 48.0 °F - 42.1 °F 80% 30.02 in - Calm Calm - N/A   Unknown
4:52 AM 46.9 °F - 43.0 °F 86% 30.03 in - Calm Calm - N/A   Unknown
5:52 AM 42.1 °F - 39.9 °F 92% 30.05 in - Calm Calm - N/A   Unknown
6:52 AM 39.0 °F 35.7 °F 37.9 °F 96% 30.08 in - East 4.6 mph - N/A   Unknown
7:52 AM 44.1 °F - 41.0 °F 89% 30.08 in - Calm Calm - N/A   Unknown
8:52 AM 53.1 °F - 44.1 °F 71% 30.07 in - SSW 6.9 mph - N/A   Unknown
9:52 AM 57.0 °F - 42.1 °F 57% 30.08 in - WSW 10.4 mph - N/A   Unknown
10:52 AM 59.0 °F - 42.1 °F 53% 30.08 in - WNW 11.5 mph - N/A   Unknown
11:52 AM 60.1 °F - 43.0 °F 53% 30.07 in - West 9.2 mph - N/A   Unknown
12:52 PM 63.0 °F - 44.1 °F 50% 30.05 in - WNW 11.5 mph - N/A   Unknown
1:52 PM 64.9 °F - 43.0 °F 45% 30.02 in - West 11.5 mph - N/A   Unknown
2:52 PM 66.0 °F - 43.0 °F 43% 30.00 in - WSW 6.9 mph - N/A   Unknown
3:52 PM 66.9 °F - 42.1 °F 40% 29.99 in - SW 9.2 mph - N/A   Unknown
4:52 PM 66.0 °F - 46.0 °F 48% 29.99 in - WSW 11.5 mph - N/A   Unknown
5:52 PM 61.0 °F - 48.0 °F 62% 30.00 in - SW 10.4 mph - N/A   Unknown
6:52 PM 55.0 °F - 48.0 °F 77% 30.04 in - Calm Calm - N/A   Unknown
7:52 PM 53.1 °F - 48.0 °F 83% 30.05 in - Calm Calm - N/A   Unknown
8:52 PM 50.0 °F - 46.9 °F 89% 30.06 in - NNW 3.5 mph - N/A   Unknown
9:52 PM 44.1 °F 42.5 °F 42.1 °F 93% 30.07 in - NNE 3.5 mph - N/A   Unknown
10:52 PM 42.1 °F 40.2 °F 39.9 °F 92% 30.07 in - NNE 3.5 mph - N/A   Unknown
11:52 PM 43.0 °F 40.3 °F 41.0 °F 93% 30.06 in - NE 4.6 mph - N/A   Unknown